STARLINK-1399, 45683

Orbit data source: Space-Track

STARLINK-1399, 45683 is a payload satellite owned by SpaceX/Seattle (US) in LEO that was launched on Thu, 04 Jun 2020 UTC via an FALCON 9 launch vehicle from the Air Force Eastern Test Range (AFETR). Payloads include a variety of satellites, spacecraft, and rockets equipped with specific instruments for various scientific and technological missions. These include communications satellites like Starlink; space stations such as the ISS; scientific satellites like the Hubble; Earth observation satellites from companies like Planet Labs, Umbra, and HawkEye 360; GPS; miniature CubeSats for education and research; and military/defense satellites.

Loading next visibility...
STARLINK-1399 details
Identifier
45683, 2020-035AC
Orbit
LEO
Last TLE update19 hours ago
Origin
Flag of USSpaceX/Seattle (US)
ManufacturerSpaceX/Seattle
MissionOperational Commercial Communications
Bus & MotorSTARLINK, Unknown motor
Mass260 kg wet, ~248 kg dry
Launch date (UTC)
2020-06-04 (5 years ago)
Launch vehicle
FALCON 9
Launch site
Air Force Eastern Test Range (AFETR)
Object type
Payload
Rocket body
Debris
Shape & HBRBox + 1 Pan, 8.86 m
Radar Cross Section13.562 m², Large (>1 m²)

Expand to show TLE details & history

TLE from 19 hours ago
0 STARLINK-1399
1 45683U 20035AC  24360.66667824  .00004571  00000-0  27882-3 0  9993
2 45683  53.0533 227.3120 0001248  97.7865 244.5203 15.12169779252299
Epoch: 2024-12-25T16:00Z
Definitive object data (Epoch: 2024-12-25T16:00:00.999Z)
Latitude-14.22418°
Longitude-118.2788°
Altitude533.755 km
Speed7.596 km/s
True Right ascension14h 25m 31s
True Declination-14° 08' 23"
Sunlit
Object was in daylight at TLE epoch
Visualization TLE readout
Latitude-53.06075°
Longitude153.27043°
Altitude548.844 km
Speed7.587 km/s
Apparent Right ascension01h 51m 02s
Apparent Declination-78° 34' 52"
Sunlit
Object is in daylight
Visualization observer readout
Local Sidereal Time10:03:17
Azimuth193.664° SSW
Elevation-45.382°
Doppler factor1
Orbital elements
Apogee altitude530.718 km
Perigee altitude528.994 km
Semi-major axis6,907.993 km
Eccentricity0.0001248
Inclination53.0533°
RAAN227.312°
Arg. of periapsis97.7865°
True anomaly244.50739°
Mean anomaly244.5203°
Eccentric anomaly244.51385°
Mean motion3.7802 °/min
BSTAR0.00027882
Orbital period95.23 mins
Loading maneuver chart data...

STARLINK-1399 Visibility forecast

Observer location: undefined°, undefined

Span
Click to sort rows by Start time (UTC) header in descending order
Start Az.
Max El. time (UTC)
Max El. Az.
Max El.
End time (UTC)
End Az.
7 mins2024-12-26 17:37:03.355Z214.084° SW2024-12-26 17:41:03.355Z113.945° SE39.44°2024-12-26 17:44:03.355Z59.255° ENE
5 mins2024-12-26 19:18:03.355Z290.285° WNW2024-12-26 19:20:03.355Z332.662° NNW23.544°2024-12-26 19:23:03.355Z28.102° NE
6 mins2024-12-27 00:18:03.355Z322.39° NNW2024-12-27 00:21:03.355Z63.123° ENE38.663°2024-12-27 00:24:03.355Z113.74° SE
4 mins2024-12-27 01:58:03.355Z259.122° W2024-12-27 01:59:03.355Z240.406° WSW18.059°2024-12-27 02:02:03.355Z188.55° SSW
|